Weather History for Curtin, WE

Change the Weather History Date:

Sunday, October 7, 2012

  Actual Average Record
Temperature  
Mean Temperature 85 °F -  
Max Temperature 107 °F - - ()
Min Temperature 63 °F - - ()
Cooling Degree Days 20    
Growing Degree Days 35 (Base 50)    
Moisture  
Dew Point 61 °F    
Average Humidity 56    
Maximum Humidity 94    
Minimum Humidity 7    
Precipitation  
Precipitation 0.00 in - - ()
Sea Level Pressure  
Sea Level Pressure 29.81 in    
Wind  
Wind Speed 5 mph ()    
Max Wind Speed 13 mph    
Max Gust Speed -    
T = Trace of Precipitation, MM = Missing Value Source: Averaged Metar Reports

Daily Weather History Graph

Daily Weather History Graph

Search for Another Location

Airport:

Trip Planner

Search our weather history database for the weather conditions in past years. The results will help you decide how hot, cold, wet, or windy it might be!

Date:

Astronomy

Oct. 07, 2012 Rise Set
Actual Time 5:22 AM AWST 5:43 PM AWST
Civil Twilight 5:00 AM AWST 6:05 PM AWST
Nautical Twilight 4:34 AM AWST 6:30 PM AWST
Astronomical Twilight 4:09 AM AWST 6:56 PM AWST
Moon 11:36 PM AWST (10/7) 10:15 AM AWST (10/7)
Length of Visible Light 13h 04m
Length of Day
12h 21m
Waning Gibbous, 61% of the Moon is Illuminated
Oct 7
Waning Gibbous
Oct 8
Last Quarter
Oct 15
New
Oct 22
First Quarter
Oct 30
Full

Hourly Weather History & Observations

Time (AWST) Temp. Heat Index Dew Point Humidity Pressure Visibility Wind Dir Wind Speed Gust Speed Precip Events Conditions
12:00 AM 72 °F - 57 °F 50% 29.83 in - West 4.6 mph - -  
12:00 AM 71.6 °F - 57.2 °F 60% 29.83 in - West 4.6 mph - N/A   Unknown
1:00 AM 71.6 °F - 62.6 °F 73% 29.83 in - West 5.8 mph - N/A   Unknown
2:00 AM 69.8 °F - 64.4 °F 83% 29.80 in - West 4.6 mph - N/A   Unknown
3:00 AM 66 °F - 60 °F 74% 29.82 in - NW 2.3 mph - -  
3:00 AM 66.2 °F - 59.0 °F 78% 29.83 in - NW 2.3 mph - N/A   Unknown
4:00 AM 64.4 °F - 60.8 °F 88% 29.83 in - North 4.6 mph - N/A   Unknown
5:00 AM 64.4 °F - 60.8 °F 88% 29.86 in - North 3.5 mph - N/A   Unknown
6:00 AM 65 °F - 63 °F 91% 29.86 in - NE 4.6 mph - -  
6:00 AM 64.4 °F - 62.6 °F 94% 29.86 in - NE 4.6 mph - N/A   Unknown
7:00 AM 75.2 °F - 69.8 °F 83% 29.89 in - North 2.3 mph - N/A   Unknown
8:00 AM 82.4 °F 85.4 °F 68.0 °F 62% 29.89 in - West 6.9 mph - N/A   Unknown
9:00 AM 88 °F - 61 °F 30% 29.88 in - SW 4.6 mph - -  
9:00 AM 87.8 °F 87.6 °F 60.8 °F 40% 29.89 in - SW 4.6 mph - N/A   Unknown
10:00 AM 95.0 °F 93.7 °F 57.2 °F 28% 29.86 in - SSW 5.8 mph - N/A   Unknown
11:00 AM 100.4 °F - 51.8 °F 20% 29.83 in - SSW 6.9 mph - N/A   Unknown
12:00 PM 103 °F - 44 °F 7% 29.79 in - SSW 9.2 mph - -  
12:00 PM 102.2 °F - 44.6 °F 14% 29.80 in - SSW 9.2 mph - N/A   Unknown
1:00 PM 105.8 °F - 41.0 °F 11% 29.77 in - SSW 8.1 mph - N/A   Unknown
2:00 PM 105.8 °F - 39.2 °F 10% 29.74 in - WNW 6.9 mph - N/A   Unknown
3:00 PM 100 °F - 61 °F 19% 29.73 in - NW 12.7 mph - -  
3:00 PM 100.4 °F 101.3 °F 60.8 °F 27% 29.74 in - NW 12.7 mph - N/A   Unknown
4:00 PM 95.0 °F 96.0 °F 62.6 °F 34% 29.74 in - NW 10.4 mph - N/A   Unknown
5:00 PM 91.4 °F 94.0 °F 66.2 °F 43% 29.74 in - NNW 9.2 mph - N/A   Unknown
6:00 PM 86 °F - 71 °F 53% 29.76 in - North 9.2 mph - -  
6:00 PM 86.0 °F 91.8 °F 71.6 °F 62% 29.77 in - North 9.2 mph - N/A   Unknown
7:00 PM 82.4 °F 87.2 °F 71.6 °F 70% 29.80 in - North 6.9 mph - N/A   Unknown
8:00 PM 80.6 °F 84.6 °F 71.6 °F 74% 29.80 in - NW 4.6 mph - N/A   Unknown
9:00 PM 79 °F - 72 °F 73% 29.82 in - NNW 4.6 mph - -  
9:00 PM 78.8 °F - 71.6 °F 78% 29.83 in - NNW 4.6 mph - N/A   Unknown
10:00 PM 75.2 °F - 71.6 °F 89% 29.83 in - NNE 1.2 mph - N/A   Unknown
11:00 PM 73.4 °F - 68.0 °F 83% 29.80 in - West 3.5 mph - N/A   Unknown